Regional Weather Roundup
Issued by NWS Portland, ME

Current Version | Previous Version | Text Only | Print | Product List | Glossary On
Versions: 1 2 3 4 5 6 7 8 9 10 11 12 13 14 15 16 17 18 19 20 21 22 23 24 25 26 27 28 29 30 31 32 33 34 35 36 37 38 39 40 41 42 43 44 45 46 47 48 49 50
000 ASUS41 KGYX 260910 RWRGYX WEATHER ROUNDUP FOR MAINE AND NEW HAMPSHIRE NATIONAL WEATHER SERVICE GRAY ME 500 AM EDT MON JUN 26 2017 MEZ002-005-006-010-012-015-018-020-021-024-026-027-029-261000- MAINE CITY SKY/WX TMP DP RH WIND PRES REMARKS PORTLAND PTCLDY 60 54 80 SW5 29.88S SANFORD PTCLDY 59 49 69 SW5 29.90R BAR HARBOR MOCLDY 56 54 93 S3 29.87R WISCASSET CLEAR 56 54 93 CALM 29.88S ROCKLAND PTCLDY 57 56 96 W3 29.87R FRYEBURG CLEAR 53 52 96 W5 29.90R LEWISTONAUBURN PTCLDY 55 55 100 N3 29.88S AUGUSTA CLEAR 57 55 93 CALM 29.87S WATERVILLE CLEAR 54 54 100 CALM 29.85R BANGOR CLOUDY 58 56 93 CALM 29.86R GREENVILLE N/A 51 49 92 CALM 29.85R MILLINOCKET PTCLDY 51 51 100 CALM 29.85S HOULTON CLOUDY 51 51 100 CALM 29.81S PRESQUE ISLE MOCLDY 51 50 96 CALM 29.82R FRENCHVILLE CLOUDY 54 48 80 NW6 29.79R CARIBOU MOCLDY 54 50 86 SW7 29.79S $$ NHZ002-005-008-009-011-012-014-261000- NEW HAMPSHIRE CITY SKY/WX TMP DP RH WIND PRES REMARKS PORTSMOUTH PTCLDY 60 53 77 SW6 29.90R ROCHESTER PTCLDY 59 49 69 CALM 29.90R NASHUA CLEAR 56 55 97 VRB3 29.94S MANCHESTER PTCLDY 60 51 72 SW5 29.92S CONCORD CLEAR 60 49 66 SW6 29.93R LACONIA CLEAR N/A N/A N/A SW8 29.92R PLYMOUTH FAIR 50 49 97 CALM 29.92R BERLIN FOG 49 46 90 CALM 29.92R VSB 1/2 WHITEFIELD CLEAR 46 43 89 CALM 29.93R JAFFREY CLEAR 53 53 100 CALM 29.96R KEENE CLEAR 55 52 89 CALM 29.96R LEBANON CLEAR 54 49 83 CALM 29.93S MT WASHINGTON FOG 36 36 100 W58 N/A VSB 0 $$ VTZ005-007-008-261000- VERMONT CITY SKY/WX TMP DP RH WIND PRES REMARKS ST JOHNSBURY N/A 51 51 100 MISG 29.91R MONTPELIER MOCLDY 50 48 93 S5 29.97R BURLINGTON PTCLDY 56 50 80 S3 29.92S $$ MAZ007-012-024-CTZ003-RIZ002-NYZ038-NYZ072-261000- SOUTHERN NEW ENGLAND AND NY CITY SKY/WX TMP DP RH WIND PRES REMARKS BOSTON PTCLDY 64 53 67 W10 29.94R WORCESTER CLEAR 55 50 83 W12 29.95F NANTUCKET CLEAR 62 61 96 W7 29.94R PROVIDENCE PTCLDY 61 57 87 W5 29.96R HARTFORD PTCLDY 54 53 97 CALM 29.97R ALBANY PTCLDY 55 52 89 CALM 29.98S $$ ANZ081-ANZ082-ANZ150-NHZ014-MEZ023>029-261000- COASTAL MARINE OBSERVATIONS STATION/POSITION TIME TEMP WIND PRES WAVE AIR SEA DIR/SP/G HT/PER (UTC) (F) (DEG/KT/KT) (MB) (FT/S) MATINICUS ROCK 0800 60 220/ 12/ 12 1011.0R ISLE OF SHOALS 0800 64 250/ 16/ 16 1012.2R JEFFREYS LEDGE 0806 57 N/A 2/ 7 CASHES LEDGE BUO 0750 60 60 1011.7 3/ 8 GEORGES BANK BUO 0750 57 55 1013.7 3/ 9 $$ .............KEY.............. WCI - WIND CHILL TC - TEMPERATURE IN CELSIUS VSB - VISIBILITY IN MILES HX - HEAT INDEX FAIR- INDICATES FEW OR NO CLOUDS BELOW 12,000 FT, WITH NO SIGNIFICANT WEATHER AND/OR OBSTRUCTIONS TO VISIBILITY.

USA.gov is the U.S. government's official web portal to all federal, state and local government web resources and services.